Regional Weather Roundup
Issued by NWS Charleston, SC

Current Version | Previous Version | Text Only | Print | Product List | Glossary Off
Versions: 1 2 3 4 5 6 7 8 9 10 11 12 13 14 15 16 17 18 19 20 21 22 23 24 25 26 27 28 29 30 31 32 33 34 35 36 37 38 39 40 41 42 43 44 45 46 47 48 49 50

000
ASUS42 KCHS 020427
RWRCHS

REGIONAL WEATHER ROUNDUP
NATIONAL WEATHER SERVICE CHARLESTON SC
1200 AM EDT WED SEP 02 2015

NOTE: "FAIR" INDICATES FEW OR NO CLOUDS BELOW 12,000 FEET WITH NO
SIGNIFICANT WEATHER AND/OR OBSTRUCTIONS TO VISIBILITY.

NOT ALL STATIONS ARE QUALITY CONTROLLED BY THE NATIONAL
WEATHER SERVICE. USE DATA WITH CAUTION...ESPECIALLY
DEWPOINT OBSERVATIONS.

SCZ027-030-031-034>040-042>050-020500-
...SOUTHEAST SOUTH CAROLINA...

CITY           SKY/WX    TMP DP  RH WIND       PRES   REMARKS
N CHARLESTON   CLOUDY    79  74  84 CALM      30.09R
WATERFRONT PRK   N/A     81  77  88 VRB2      30.06S
MOUNT PLEASANT LGT RAIN  75  75 100 CALM      30.09R
JOHNS ISLAND   FAIR      77  75  94 CALM      30.09R
PINOPOLIS        N/A     81  73  78 CALM      30.00F
MONCKS CORNER  FAIR      75  72  88 CALM      30.09R
SUMMERVILLE    FAIR      75  75 100 CALM      30.10S
BEAUFORT MCAS  MOCLDY    78  75  90 CALM      30.09S
BEAUFORT ARPT  FAIR      79  77  94 CALM      30.08S
HILTON HEAD IS PTCLDY    81  77  89 S3        30.09S
WALTERBORO     CLOUDY    79  73  83 CALM      30.10S
ALLENDALE      MOCLDY    77  75  94 CALM      30.09S

...SOUTHERN MIDLANDS AND PEE DEE...

CITY           SKY/WX    TMP DP  RH WIND       PRES   REMARKS
GEORGETOWN     NOT AVBL
KINGSTREE      NOT AVBL
ORANGEBURG     PTCLDY    74  72  93 S3        30.10R
BARNWELL       FAIR      77  73  88 CALM      30.11R
AIKEN          FAIR      72  68  88 CALM      30.13F
MANNING        FAIR      77  72  83 CALM      30.09R
COLUMBIA       PTCLDY    78  70  76 CALM      30.08R
SUMTER         CLEAR     76  71  83 S5        30.07R
FLORENCE       PTCLDY    77  73  87 SW6       30.08S
MYRTLE BEACH   CLOUDY    77  70  78 CALM      30.11S
N MYRTLE BEACH MOCLDY    76  73  91 W3        30.08S

$$

GAZ063-065-086>088-099>101-113>116-118-119-134>141-150-020500-
...SOUTHEAST GEORGIA...

CITY           SKY/WX    TMP DP  RH WIND       PRES   REMARKS
SAVANNAH ARPT  MOCLDY    78  75  90 SW5       30.10R
HUNTER AAF     PTCLDY    78  78 100 S2        30.07S
FORT STEWART   PTCLDY    76  74  92 CALM      30.08R
STATESBORO     CLOUDY    78  78 100 CALM      30.09F
SYLVANIA       CLOUDY    78  77  96 CALM      30.11S
CLAXTON        NOT AVBL

...CSRA...CENTRAL AND FAR SOUTHEAST GEORGIA...

CITY           SKY/WX    TMP DP  RH WIND       PRES   REMARKS
THOMSON        CLEAR     73  73 100 CALM      30.14S
AUGUSTA-BUSH   CLEAR     71  71 100 CALM      30.08S FOG
AUGUSTA-DANIEL CLEAR     79  71  76 SE6       30.10S
SWAINSBORO     CLOUDY    81  77  89 CALM      30.11S
VIDALIA        MOCLDY    77  75  94 S3        30.10S
EASTMAN        FOG       74  74 100 CALM      30.12S VSB 3/4
HAZLEHURST     FAIR      78  78 100 CALM      30.08F
ALMA           MOCLDY    77  75  93 E5        30.09S
WAYCROSS       PTCLDY    78  78 100 CALM      30.09F
JESUP          FAIR      79  77  94 CALM      30.09F
BAXLEY         FAIR      79  77  94 SE3       30.08F
BRUNSWICK      MOCLDY    73  72  94 CALM      30.09F
SAINT SIMONS   PTCLDY    78  76  93 E3        30.09S

$$

SCZ027-028-034-036>038-045-046-048>050-GAZ119-141-020500-
...LAKE AND SUPPLEMENTAL COASTAL OBSERVATIONS...

STATION/POSITION TIME  TEMP    WIND        PRES    WAVE   SWELL
                       AIR SEA DIR/SP/G            HT/PER HT/PER/DIR
                 (UTC) (F)     (DEG/KT/KT) (MB)    (FT/S) (FT/S/D)
UPR LAKE MARION  NOT AVBL
WINYAH BAY       0300   78     260/  1     1018.0
LAKE MURRAY      0300   80        CALM     1017.9S
ACE BASIN NERRS  NOT AVBL
FORT PULASKI     0400   81 83  150/  5/  8 1019.2F
SAPELO ISLAND    0400   78     120/  2     1019.0S

$$

ANZ835-935-AMZ111-154-330-350-352-354-370-450-454-472-020500-
...C-MAN AND BUOY OBSERVATIONS...

STATION/POSITION TIME  TEMP    WIND        PRES    WAVE   SWELL
                       AIR SEA DIR/SP/G            HT/PER HT/PER/DIR
                 (UTC) (F)     (DEG/KT/KT) (MB)    (FT/S) (FT/S/D)
BUOY 41004       0350   82 83  160/  8/  8 1018.5R   2/ 7   2/ 7
BUOY 41008       0350   82 84  160/  6/  8 1019.0F   2/ 7   2/110/ 7
FOLLY BEACH CMAN 0400   81     190/  8/  9 1018.9R
CAPERS NEARSHORE 0308   82     180/  8/ 10 1018.7F
FRIPP NEARSHORE  0300   82     160/ 10/ 10 1018.5S


STATION/POSITION TIME  TEMP    WIND        PRES    WAVE   SWELL
                       AIR SEA DIR/SP/G            HT/PER HT/PER/DIR
                 (UTC) (F)     (DEG/KT/KT) (MB)    (FT/S) (FT/S/D)
5E ST. MARYS GA  0321      85                N/A     2/ 8
FRYING PAN BUOY  0350   82 81  230/  6/  8 1019.3R   1/ 9   2/120/ 9
BUOY 41025       0350   80 84  280/  6/  8 1018.0S   2/ 8   2/110/ 8
CAPE LOOKOUT NC  0400   79     270/  8/  9 1018.0R
BUOY 41002       0350   84 85  260/  8/ 10 1018.4F   3/ 5   2/240/ 5
BUOY 41010       0320   84 86  140/  4/  6 1019.3R
ST AUGUSTINE FL  0400   82 83  180/  2/  3 1019.5F


$$



USA.gov is the U.S. government's official web portal to all federal, state and local government web resources and services.